Location: Appeville
(49.3218°N, 1.3427°W)
Time: 04:33:50
(UTC+00:00)

Cosmos 1461 - Pass Details

Date: 08 December 2019
Orbit: 518 x 649 km, 65.0° (Epoch: 23 January)

Event Time Altitude Azimuth Distance (km) Brightness Sun altitude
Exits shadow 04:57:38 57° 109° (ESE) 691 3.5 -26.5°
Drops below altitude 10° 05:01:13 10° 134° (SE) 1,929 6.2 -25.9°
Sets 05:03:31 0° 137° (SE) 2,850 7.2 -25.6°
